Regional Weather Roundup
Issued by NWS Sterling, VA

Home | Current Version | Previous Version | Graphics & Text | Print | Product List | Glossary On
Versions: 1 2 3 4 5 6 7 8 9 10 11 12 13 14 15 16 17 18 19 20 21 22 23 24 25 26 27 28 29 30 31 32 33 34 35 36 37 38 39 40 41 42 43 44 45 46 47 48 49 50
000
ASUS41 KLWX 211510
RWRLWX

REGIONAL WEATHER ROUNDUP
NATIONAL WEATHER SERVICE BALTIMORE MD/WASHINGTON DC
1100 AM EDT SUN SEP 21 2014

Note: "FAIR" indicates few or no clouds below 12,000 feet
with no significant weather and/or obstructions to visibility.
 TC=TEMPERATURE CELSIUS

 * =Non NWS site. Station does not report precipitation (e.g. rain,
    snow, etc.), thunder, or fog.

DCZ001-MDZ009-015-VAZ040>042-051-053>054-211600-
WASHINGTON METRO

CITY           SKY/WX    TMP DP  RH WIND       PRES   REMARKS
WASHINGTON NAT PTSUNNY   74  62  66 CALM      29.86F
DULLES         MOSUNNY   71  61  70 S6        29.86F
ANDREWS AFB    MOSUNNY   70  64  81 VRB2      29.85F
QUANTICO       MOSUNNY   69  63  81 VRB5      29.86F
COLLEGE PARK*  MOSUNNY   72  64  78 CALM      29.85F
LEESBURG*      SUNNY     72  64  78 SE3       29.87F
MANASSAS*      SUNNY     72  64  78 CALM      29.87F
GAITHERSBURG*  MOSUNNY   72  61  68 CALM      29.90F

$$

MDZ006>007-011-014-211600-
BALTIMORE METRO

CITY           SKY/WX    TMP DP  RH WIND       PRES   REMARKS
BWI AIRPORT    PTSUNNY   73  62  68 VRB5      29.85F
MD SCIENCE CTR   N/A     69  62  78 MISG      29.86F
MARTIN STATE   PTSUNNY   70  66  88 CALM      29.87F
ANNAPOLIS        N/A     71  63  75 CALM      29.84F
FORT MEADE*    PTSUNNY   70  63  78 CALM      29.87F

$$

MDZ012-015-019>023-211600-
MARYLAND EASTERN SHORE

CITY           SKY/WX    TMP DP  RH WIND       PRES   REMARKS
OCEAN CITY     CLOUDY   N/A N/A N/A N7        29.81F
SALISBURY      CLOUDY    75  69  81 NE7       29.81F
BAY BRIDGE AP*   N/A     70  64  83 N6        29.84F
CAMBRIDGE*     CLOUDY    70  64  83 NW3       29.83S

$$

MDZ017>025-211600-
SOUTHERN MARYLAND

CITY           SKY/WX    TMP DP  RH WIND       PRES   REMARKS
PATUXENT RIVER PTSUNNY   72  65  78 NW9       29.83F
ST INIGOES     CLOUDY    72  64  76 VRB6      29.82F
LEONARDTOWN*   CLOUDY    72  63  73 N5        29.85F

$$

MDZ003>005-211600-
NORTH CENTRAL MARYLAND

CITY           SKY/WX    TMP DP  RH WIND       PRES   REMARKS
FREDERICK*     SUNNY     75  64  69 CALM      29.87F
HAGERSTOWN APT SUNNY     72  59  63 S7        29.83F
WESTMINSTER*   MOSUNNY   72  63  73 S5          N/A

$$

MDZ501>502-211600-
WESTERN MARYLAND

CITY           SKY/WX    TMP DP  RH WIND       PRES   REMARKS
OAKLAND*       MOSUNNY   70  68  94 W13G20    29.89F
CUMBERLAND*    SUNNY     79  59  50 SE6       29.84F

$$

VAZ025>031-211600-
SHENANDOAH VALLEY

CITY           SKY/WX    TMP DP  RH WIND       PRES   REMARKS
WINCHESTER*    SUNNY     77  57  50 S7        29.83F
STAUNTON*      SUNNY     75  58  55 SW6       29.90F

$$

WVZ021-048>050-054>055-211600-
EASTERN WEST VIRGINIA PANHANDLE

CITY           SKY/WX    TMP DP  RH WIND       PRES   REMARKS
MARTINSBURG    SUNNY     74  57  55 S6        29.84F
PETERSBURG*    MOSUNNY   80  58  46 SE9       29.82F

$$

VAZ036>039-050-211600-
CENTRAL FOOTHILLS

CITY           SKY/WX    TMP DP  RH WIND       PRES   REMARKS
CHARLOTTESVILL SUNNY     75  61  61 CALM      29.86F
ORANGE*        SUNNY     75  61  60 CALM      29.88F

$$

VAZ055>057-211600-
NORTH AND CENTRAL PIEDMONT

CITY           SKY/WX    TMP DP  RH WIND       PRES   REMARKS
FREDERICKSBRG* SUNNY     73  64  74 CALM      29.85F
STAFFORD*      SUNNY     71  69  92 CALM      29.90F

$$

NCZ024-NYZ072-PAZ021-071-VAZ022-071-211600-
OTHER REGIONAL OBSERVATIONS

CITY           SKY/WX    TMP DP  RH WIND       PRES   REMARKS
NEW YORK CITY  CLOUDY    72  67  84 CALM      29.88F HAZE
PHILADELPHIA   CLOUDY    70  65  84 VRB5      29.84F
PITTSBURGH     CLOUDY    69  64  84 S13       29.77F
ROANOKE        MOSUNNY   71  59  65 W10       29.93F
RICHMOND       PTSUNNY   75  62  64 NW10      29.86F
RALEIGH        PTSUNNY   74  59  59 NW7       29.91S

$$

ANZ530>537-211600-
MARINE OBSERVATIONS

STATION/POSITION TIME  TEMP    WIND        PRES
                       AIR SEA DIR/SP/G
                 (UTC) (F)     (DEG/KT/KT) (MB)
THOMAS PT LIGHT  1500   67 73   50/  6/  7 1011.5F
BALT KEY BRIDGE  1500   68     340/  2/  3 1010.8F
COVE POINT       1500   69      20/  7/  9 1010.2F
LEWISETTA        1500   70 74  330/  8/ 10 1009.9F
SOLOMONS ISLAND  1500      76                N/A
PINEY POINT      1500          340/ 10/ 10   N/A

$$




USA.gov is the U.S. government's official web portal to all federal, state and local government web resources and services.